EW8655 Weather Reports


time (UTC)temp
C
wind
direction
speed
KPH
gust
KPH
rain 1hr
cm
rain 24hr
cm
rain mn
cm
humidity
%
barometer
mb
20260507085508 5 275 3.2 8.0 0.00 0.00 0.00 89 1012.1
20260507085008 5 245 3.2 8.0 0.00 0.00 0.00 89 1012.1
20260507084507 5 268 3.2 8.0 0.00 0.00 0.00 89 1012.1
20260507084008 5 254 8.0 8.0 0.00 0.00 0.00 89 1012.1
20260507083508 5 253 8.0 8.0 0.00 0.00 0.00 89 1012.1
20260507083008 5 254 8.0 8.0 0.00 0.00 0.00 89 1012.1
20260507082507 5 247 8.0 8.0 0.00 0.00 0.00 88 1012.1
20260507082008 5 256 8.0 8.0 0.00 0.00 0.00 87 1012.1
20260507081507 5 241 8.0 8.0 0.00 0.00 0.00 87 1012.1
20260507081008 5 260 8.0 8.0 0.00 0.00 0.00 86 1012.1
20260507080508 5 259 8.0 8.0 0.00 0.00 0.00 86 1012.1
20260507080007 5 255 8.0 8.0 0.00 0.00 0.00 85 1012.1
20260507075507 5 230 8.0 8.0 0.00 0.00 0.00 86 1012.1
20260507075007 6 259 8.0 11.3 0.00 0.00 0.00 86 1012.1
20260507074507 5 248 8.0 11.3 0.00 0.00 0.00 87 1012.1
20260507074007 5 236 8.0 11.3 0.00 0.00 0.00 87 1012.1
20260507073508 5 232 8.0 11.3 0.00 0.00 0.00 87 1012.1
20260507073009 5 253 8.0 11.3 0.00 0.00 0.00 87 1012.1
20260507072008 6 267 8.0 11.3 0.00 0.00 0.00 87 1012.1
20260507071507 6 259 9.7 11.3 0.00 0.00 0.00 87 1012.1
20260507071007 6 264 11.3 11.3 0.00 0.00 0.00 87 1012.1
20260507070508 6 263 11.3 14.5 0.00 0.00 0.00 88 1012.1
20260507070010 6 269 11.3 14.5 0.00 0.00 0.00 88 1012.1
20260507065506 6 261 11.3 14.5 0.00 0.00 0.00 89 1012.1
20260507065008 6 273 11.3 14.5 0.00 0.00 0.00 89 1012.1
20260507064507 6 264 11.3 14.5 0.00 0.00 0.00 89 1012.1
20260507064007 6 266 11.3 14.5 0.00 0.00 0.00 89 1012.1
20260507063507 6 269 11.3 14.5 0.00 0.00 0.00 90 1012.1
20260507063007 6 260 11.3 11.3 0.00 0.00 0.00 90 1012.1
20260507062507 6 255 11.3 11.3 0.00 0.00 0.00 90 1012.1
20260507062008 6 275 11.3 11.3 0.00 0.00 0.00 91 1012.1
20260507061507 6 261 11.3 11.3 0.00 0.00 0.00 91 1012.1
20260507061008 6 263 11.3 14.5 0.00 0.00 0.00 91 1012.1
20260507060007 6 263 11.3 14.5 0.00 0.00 0.00 92 1012.1
20260507055007 6 254 11.3 11.3 0.00 0.00 0.00 92 1012.1
20260507054507 6 266 11.3 14.5 0.00 0.00 0.00 92 1012.1
20260507054008 6 258 11.3 14.5 0.00 0.00 0.00 92 1012.1
20260507053508 6 242 11.3 14.5 0.00 0.00 0.00 92 1012.1
20260507053008 6 239 11.3 14.5 0.00 0.00 0.00 92 1012.1
20260507052507 6 250 11.3 14.5 0.00 0.00 0.00 92 1012.1
20260507052007 6 250 11.3 14.5 0.00 0.00 0.00 92 1012.1
20260507051507 6 253 11.3 14.5 0.00 0.00 0.00 92 1012.1
20260507050507 6 240 14.5 14.5 0.00 0.00 0.00 92 1012.8
20260507045007 6 252 11.3 11.3 0.00 0.00 0.00 92 1012.1
20260507044008 6 262 11.3 11.3 0.00 0.00 0.00 92 1012.1
20260507043508 6 252 11.3 11.3 0.00 0.00 0.00 92 1012.4
20260507043008 6 261 11.3 11.3 0.00 0.00 0.00 92 1012.1
20260507042507 6 269 11.3 11.3 0.00 0.00 0.00 92 1012.1
20260507042007 6 265 8.0 11.3 0.00 0.00 0.00 92 1012.1
20260507041007 6 263 11.3 14.5 0.00 0.00 0.00 93 1012.1
20260507040507 6 265 11.3 14.5 0.00 0.00 0.00 93 1012.1
20260507040007 7 265 11.3 14.5 0.00 0.00 0.00 93 1012.1
20260507035507 7 264 11.3 14.5 0.00 0.00 0.00 94 1012.1
20260507035007 7 271 11.3 14.5 0.00 0.00 0.00 95 1012.1
20260507034506 7 274 11.3 14.5 0.00 0.00 0.00 95 1012.1
20260507034008 7 270 11.3 14.5 0.00 0.00 0.00 96 1012.1
20260507033508 7 253 11.3 14.5 0.00 0.00 0.00 96 1012.1
20260507033007 7 265 12.9 14.5 0.00 0.00 0.00 97 1012.1
20260507032507 7 261 14.5 14.5 0.00 0.00 0.00 97 1012.1
20260507032007 7 264 11.3 14.5 0.00 0.00 0.00 97 1012.1
20260507031507 7 265 14.5 14.5 0.00 0.00 0.00 97 1012.1
20260507031008 7 256 14.5 14.5 0.00 0.00 0.00 98 1012.1
20260507030507 7 270 14.5 14.5 0.00 0.00 0.00 98 1012.1
20260507030006 7 259 14.5 14.5 0.00 0.00 0.00 99 1012.1
20260507025507 7 266 11.3 14.5 0.00 0.00 0.00 99 1012.1
20260507025008 7 269 11.3 14.5 0.00 0.00 0.00 99 1012.1
20260507024507 7 275 11.3 14.5 0.00 0.00 0.00 99 1012.1
20260507024008 7 292 11.3 14.5 0.00 0.00 0.00 99 1012.1
20260507023507 7 275 11.3 14.5 0.00 0.00 0.00 99 1012.1
20260507023007 7 271 11.3 14.5 0.00 0.00 0.00 99 1012.1
20260507022507 7 258 11.3 14.5 0.00 0.00 0.00 99 1012.1
20260507022006 7 262 11.3 14.5 0.00 0.00 0.00 99 1012.1
20260507021507 6 263 11.3 14.5 0.00 0.00 0.00 99 1012.1
20260507021007 6 263 11.3 14.5 0.00 0.00 0.00 99 1012.1
20260507020507 7 250 14.5 14.5 0.00 0.00 0.00 99 1012.1
20260507020006 6 254 14.5 19.3 0.00 0.00 0.00 99 1012.1
20260507015507 6 245 14.5 19.3 0.00 0.00 0.00 99 1012.1
20260507015007 6 258 14.5 19.3 0.00 0.00 0.00 99 1012.1
20260507014507 6 253 14.5 19.3 0.00 0.00 0.00 99 1012.1
20260507013508 6 245 14.5 19.3 0.00 0.00 0.00 99 1012.1
20260507012506 6 233 14.5 14.5 0.00 0.00 0.00 99 1012.1
20260507012008 6 247 14.5 14.5 0.00 0.00 0.00 99 1012.1
20260507011506 6 250 14.5 14.5 0.00 0.00 0.00 99 1012.1
20260507010507 6 242 11.3 14.5 0.00 0.00 0.00 99 1012.1
20260507010006 6 250 11.3 14.5 0.00 0.00 0.00 99 1012.1
20260507005506 6 238 11.3 14.5 0.00 0.00 0.00 99 1012.1
20260507005007 6 260 11.3 14.5 0.00 0.00 0.00 99 1012.1
20260507004506 6 263 11.3 14.5 0.00 0.00 0.00 98 1012.1
20260507004007 6 280 11.3 14.5 0.00 0.00 0.00 98 1012.1
20260507003507 6 266 11.3 14.5 0.00 0.00 0.00 98 1012.1
20260507002507 6 279 9.7 11.3 0.00 0.00 0.00 97 1012.1
20260507002007 6 305 8.0 14.5 0.00 0.00 0.00 97 1012.1
20260507001506 6 292 8.0 14.5 0.00 0.00 0.00 97 1012.0
20260507000507 6 305 6.4 11.3 0.00 0.00 0.00 97 1011.2
20260507000006 6 302 8.0 11.3 0.00 0.00 0.00 97 1011.1
20260506235507 6 303 6.4 11.3 0.00 0.00 0.00 97 1011.1
20260506235007 6 281 8.0 14.5 0.00 0.00 0.00 97 1011.1
20260506234507 6 288 8.0 22.5 0.00 0.00 0.00 97 1011.1
20260506234007 6 303 8.0 22.5 0.00 0.00 0.00 96 1010.1
20260506233506 6 307 8.0 14.5 0.00 0.00 0.00 96 1011.1
20260506233007 6 331 8.0 14.5 0.00 0.00 0.00 96 1010.1
20260506232506 7 287 3.2 11.3 0.00 0.00 0.00 97 1010.6
20260506232007 7 323 1.6 8.0 0.00 0.00 0.00 97 1010.1
20260506231507 7 352 3.2 8.0 0.00 0.00 0.00 97 1010.1
20260506230507 7 20 8.0 8.0 0.00 0.00 0.00 97 1010.1
20260506230007 7 14 3.2 8.0 0.00 0.00 0.00 97 1010.1
20260506225007 7 52 8.0 8.0 0.00 0.00 0.00 97 1010.1
20260506224506 7 46 3.2 8.0 0.00 0.00 0.00 97 1009.1
20260506224007 7 70 3.2 8.0 0.00 0.00 0.00 97 1009.1
20260506223506 7 84 3.2 8.0 0.00 0.00 0.00 97 1010.1
20260506222507 8 90 3.2 8.0 0.00 0.00 0.00 98 1009.1
20260506221506 8 125 3.2 8.0 0.00 0.00 0.00 99 1009.1
20260506221007 7 121 3.2 8.0 0.00 0.00 0.00 99 1009.1
20260506220506 7 115 0.0 8.0 0.00 0.00 0.00 99 1009.1
20260506215507 7 121 3.2 8.0 0.00 0.00 0.00 100 1009.1
20260506215007 7 121 3.2 11.3 0.00 0.00 0.00 100 1009.1
20260506214507 7 127 4.8 11.3 0.00 0.00 0.00 100 1009.1
20260506214007 7 118 8.0 11.3 0.00 0.00 0.00 100 1009.1
20260506213507 7 112 8.0 11.3 0.00 0.00 0.00 100 1009.1
20260506213006 7 103 8.0 11.3 0.00 0.00 0.00 100 1009.1
20260506212506 7 101 9.7 14.5 0.00 0.00 0.00 100 1009.1
20260506212007 7 96 11.3 14.5 0.00 0.00 0.00 100 1009.1
20260506211507 7 94 9.7 14.5 0.00 0.00 0.00 100 1009.1
20260506211007 7 101 11.3 14.5 0.00 0.00 0.00 100 1009.1
20260506210507 7 101 11.3 14.5 0.00 0.00 0.00 100 1009.1
20260506210006 7 101 11.3 14.5 0.00 0.00 0.00 100 1009.1
20260506205506 7 92 8.0 14.5 0.00 0.00 0.00 100 1009.1
20260506205008 7 92 8.0 14.5 0.00 0.00 0.00 100 1009.1
20260506204506 7 69 8.0 14.5 0.00 0.00 0.00 100 1009.1
20260506204007 7 86 8.0 11.3 0.00 0.00 0.00 100 1009.1
20260506203506 7 103 8.0 11.3 0.00 0.00 0.00 100 1009.1
20260506203007 7 87 8.0 11.3 0.00 0.00 0.00 100 1009.1
20260506202507 8 91 3.2 11.3 0.00 0.00 0.00 100 1009.1
20260506202007 8 117 8.0 11.3 0.00 0.00 0.00 100 1009.1
20260506201506 8 100 3.2 8.0 0.00 0.00 0.00 100 1009.1
20260506201007 8 106 3.2 11.3 0.00 0.00 0.00 100 1009.1
20260506200507 8 124 3.2 11.3 0.00 0.00 0.00 100 1009.1
20260506200006 8 105 8.0 11.3 0.00 0.00 0.00 100 1009.1
20260506195506 7 110 8.0 11.3 0.00 0.00 0.00 100 1009.1
20260506195007 7 102 8.0 11.3 0.00 0.00 0.00 100 1009.1
20260506194506 7 82 8.0 11.3 0.00 0.00 0.00 100 1009.1
20260506194006 7 84 8.0 8.0 0.00 0.00 0.00 100 1009.1
20260506193506 7 90 8.0 8.0 0.00 0.00 0.00 100 1009.1
20260506193007 7 89 8.0 8.0 0.00 0.00 0.00 100 1009.1
20260506192506 7 81 3.2 8.0 0.00 0.00 0.00 100 1009.1
20260506192006 7 78 3.2 8.0 0.00 0.00 0.00 100 1009.1
20260506191506 7 102 3.2 8.0 0.00 0.00 0.00 100 1009.1
20260506191006 7 92 3.2 8.0 0.00 0.00 0.00 100 1009.1
20260506190507 7 81 4.8 8.0 0.00 0.00 0.00 100 1009.1
20260506185506 7 69 3.2 8.0 0.00 0.00 0.00 100 1009.1
20260506185006 7 66 3.2 8.0 0.00 0.00 0.00 100 1009.1
20260506184505 7 78 3.2 8.0 0.00 0.00 0.00 100 1009.1
20260506184007 7 51 3.2 8.0 0.00 0.00 0.00 100 1009.1
20260506183006 7 63 3.2 8.0 0.00 0.00 0.00 100 1009.1
20260506182506 7 43 3.2 8.0 0.00 0.00 0.00 100 1009.1
20260506181506 7 29 0.0 0.0 0.00 0.00 0.00 100 1010.1
20260506181006 7 63 0.0 0.0 0.00 0.00 0.00 100 1010.1
20260506180507 7 42 0.0 3.2 0.00 0.00 0.00 100 1010.1
20260506180007 6 22 0.0 8.0 0.00 0.00 0.00 100 1010.1
20260506175506 6 13 1.6 8.0 0.00 0.00 0.00 100 1010.1
20260506175007 6 28 3.2 8.0 0.00 0.00 0.00 100 1010.1
20260506174007 6 31 3.2 8.0 0.00 0.00 0.00 100 1010.1
20260506173507 6 38 3.2 8.0 0.00 0.00 0.00 100 1009.1
20260506173006 6 28 8.0 11.3 0.00 0.00 0.00 100 1009.1
20260506172506 6 9 8.0 11.3 0.00 0.00 0.00 100 1009.1
20260506172006 6 26 8.0 11.3 0.00 0.00 0.00 100 1009.1
20260506171505 6 22 8.0 8.0 0.00 0.00 0.00 100 1009.1
20260506171006 6 32 8.0 8.0 0.00 0.00 0.00 100 1009.1
20260506170507 6 36 8.0 8.0 0.00 0.00 0.00 100 1009.1
20260506170005 6 28 8.0 8.0 0.00 0.00 0.00 100 1009.1
20260506165506 6 43 8.0 8.0 0.00 0.00 0.00 100 1009.1
20260506165007 6 36 8.0 8.0 0.00 0.00 0.00 100 1009.1
20260506164505 6 37 8.0 8.0 0.00 0.00 0.00 100 1009.1
20260506164006 6 40 8.0 8.0 0.00 0.00 0.00 100 1009.1
20260506163006 6 48 8.0 11.3 0.00 0.00 0.00 100 1009.1
20260506162506 6 51 8.0 8.0 0.00 0.00 0.00 100 1009.1
20260506162006 6 47 8.0 8.0 0.00 0.00 0.00 100 1009.1
20260506161505 6 51 8.0 8.0 0.00 0.00 0.00 100 1009.1
20260506161006 6 53 8.0 11.3 0.00 0.00 0.00 100 1009.1
20260506160506 6 59 8.0 11.3 0.00 0.00 0.00 100 1009.1
20260506160006 6 55 8.0 11.3 0.00 0.00 0.00 100 1009.1
20260506155506 6 48 8.0 11.3 0.00 0.00 0.00 100 1009.1
20260506155006 6 49 8.0 11.3 0.00 0.00 0.00 100 1009.1
20260506154506 6 48 8.0 11.3 0.00 0.00 0.00 100 1009.1
20260506154006 6 49 8.0 11.3 0.00 0.00 0.00 100 1009.1
20260506153506 6 58 8.0 11.3 0.00 0.00 0.00 100 1009.1
20260506153006 6 50 11.3 11.3 0.00 0.00 0.00 100 1009.1
20260506152506 6 53 11.3 11.3 0.00 0.00 0.00 100 1009.1
20260506152006 6 60 11.3 11.3 0.00 0.00 0.00 100 1009.1
20260506151006 6 55 8.0 11.3 0.00 0.00 0.00 100 1009.1
20260506150506 6 57 11.3 11.3 0.00 0.00 0.00 100 1009.1
20260506145505 6 50 11.3 11.3 0.00 0.00 0.00 100 1009.1
20260506145006 6 53 11.3 11.3 0.00 0.00 0.00 100 1009.1
20260506144006 6 57 11.3 11.3 0.00 0.00 0.00 100 1009.1
20260506143006 6 52 11.3 11.3 0.00 0.00 0.00 100 1009.1
20260506142506 6 58 11.3 14.5 0.00 0.00 0.00 100 1009.1
20260506142006 6 60 11.3 19.3 0.00 0.00 0.00 100 1009.1
20260506141505 6 60 12.9 19.3 0.00 0.00 0.00 100 1009.1
20260506141006 6 71 14.5 19.3 0.00 0.00 0.00 100 1009.1
20260506140506 6 93 14.5 19.3 0.00 0.00 0.00 100 1009.0
20260506140005 6 84 14.5 19.3 0.00 0.00 0.00 100 1008.6
20260506135505 6 111 11.3 19.3 0.00 0.00 0.00 100 1009.1
20260506134505 6 89 11.3 22.5 0.00 0.00 0.00 100 1009.1
20260506133506 6 94 14.5 19.3 0.00 0.00 0.00 100 1008.1
20260506133006 6 96 14.5 19.3 0.00 0.00 0.00 100 1009.1
20260506132506 6 103 14.5 19.3 0.00 0.00 0.00 100 1008.1
20260506132006 6 98 11.3 19.3 0.00 0.00 0.00 100 1008.1
20260506131506 6 106 12.9 19.3 0.00 0.00 0.00 100 1008.1
20260506131006 6 100 11.3 14.5 0.00 0.00 0.00 100 1008.1
20260506130506 6 117 11.3 14.5 0.00 0.00 0.00 100 1008.1
20260506130006 6 97 8.0 19.3 0.00 0.00 0.00 100 1008.1
20260506125505 6 114 8.0 19.3 0.00 0.00 0.00 100 1008.1
20260506125006 6 107 11.3 19.3 0.00 0.00 0.00 100 1008.1
20260506124006 6 130 11.3 19.3 0.00 0.00 0.00 100 1008.1
20260506122505 6 88 14.5 22.5 0.00 0.00 0.00 100 1008.1
20260506122007 6 95 14.5 22.5 0.00 0.00 0.00 100 1008.1
20260506121506 6 99 14.5 19.3 0.00 0.00 0.00 100 1008.1
20260506121007 6 84 11.3 19.3 0.00 0.00 0.00 100 1008.1
20260506120506 6 86 14.5 22.5 0.00 0.00 0.00 100 1008.1
20260506120006 6 98 11.3 22.5 0.00 0.00 0.00 100 1008.1
20260506115506 6 78 14.5 19.3 0.00 0.00 0.00 100 1008.1
20260506115006 6 104 14.5 19.3 0.00 0.00 0.00 100 1008.1
20260506114006 6 85 14.5 19.3 0.00 0.00 0.00 100 1008.1
20260506113506 6 91 11.3 19.3 0.00 0.00 0.00 100 1008.1
20260506113006 6 85 14.5 19.3 0.00 0.00 0.00 100 1008.1
20260506112506 6 95 12.9 22.5 0.00 0.00 0.00 100 1008.1
20260506112006 6 113 14.5 22.5 0.00 0.00 0.00 100 1008.1
20260506110506 6 84 11.3 19.3 0.00 0.00 0.00 100 1008.1
20260506110006 6 128 11.3 19.3 0.00 0.00 0.00 100 1008.1
20260506105506 6 85 14.5 19.3 0.00 0.00 0.00 100 1008.1
20260506104507 6 88 14.5 22.5 0.00 0.00 0.00 100 1008.1
20260506104008 6 90 14.5 22.5 0.00 0.00 0.00 100 1008.1
20260506103508 6 99 14.5 22.5 0.00 0.00 0.00 100 1008.1
20260506102507 6 100 14.5 22.5 0.00 0.00 0.00 100 1008.1
20260506102008 6 82 14.5 22.5 0.00 0.00 0.00 100 1008.1
20260506101507 6 100 14.5 22.5 0.00 0.00 0.00 100 1008.1
20260506100509 6 92 17.7 22.5 0.00 0.00 0.00 100 1008.1
20260506095008 6 82 14.5 22.5 0.00 0.00 0.00 100 1008.1
20260506094508 6 73 14.5 22.5 0.00 0.00 0.00 100 1008.6
20260506094008 6 80 14.5 22.5 0.00 0.00 0.00 100 1008.1
20260506093008 6 84 14.5 22.5 0.00 0.00 0.00 100 1008.1
20260506092507 6 87 17.7 22.5 0.00 0.00 0.00 100 1008.1
20260506092009 6 70 16.1 29.0 0.00 0.00 0.00 100 1008.1
20260506091507 6 79 19.3 29.0 0.00 0.00 0.00 100 1008.1
20260506091008 6 88 14.5 25.7 0.00 0.00 0.00 100 1008.1
20260506090508 6 65 19.3 25.7 0.00 0.00 0.00 100 1008.1